Content
SEND FEEDBACK

Daily
Averages
Monthly
Summary
Australia

GUNDAROO, NEW SOUTH WALES


Home > Oceania > Australia > New South Wales
Elevation: 1896 feet     Latitude: 35 18S     Longitude: 149 12E

WEATHER
 
SELECT A DAY
Number of Records: 278,606;   Date Range: 12/6/97 - 7/23/14
 
SHARE

PRINT THIS DATA

[ ← Previous Day ]
WEATHER ALMANAC - JANUARY 23, 2013
[ Next Day → ]
[ °C ]   °F
Weather ElementAverageHighLow
Temperature68.4 °F82.4 °F (2:30 pm)57.2 °F (4:00 am)
Dewpoint54.3 °F59 °F (12:00 am)47 °F (3:00 pm)
Humidity62.8 %94 % (4:00 am)21 % (3:00 pm)
Barometer29.99 in30.12 in (10:00 pm)29.89 in (2:00 am)
Wind Speed10.4 mph23 mph (5:19 pm)
Weather ElementAverage
Visibility6.3 mi
Wind DirectionESE (101.5 °)

Weather ElementTotal
Precipitation---
Cooling Degree Days4.8 (Base 65)
Growing Degree Days19.8 (Base 50)
Averaged from 68 records on January 23, 2013
WEATHER CONDITIONS BREAKOUT
WIND DIRECTION BREAKOUT
WEATHER BY HOUR - JANUARY 23, 2013
[ °C ]   °F
Local TimeTemperatureDewpointHumidityBarometerVisibilityWind DirectionWind SpeedGust SpeedPrecipitationEventsConditions
12:00 AM64.4 °F59.0 °F83 %29.95 in6.2 miEast (100°)6.9 mph
12:30 AM62.6 °F59.0 °F88 %29.95 in6.2 miEast (80°)6.9 mph
1:00 AM62.6 °F59.0 °F88 %29.95 in6.2 miEast (80°)8.1 mph
1:30 AM62.6 °F59.0 °F88 %29.95 in6.2 miEast (90°)10.4 mph
2:00 AM62.0 °F58.0 °F84 %29.89 inEast (90°)6.9 mph
2:00 AM62.6 °F59.0 °F88 %29.95 in6.2 miEast (90°)6.9 mph
2:30 AM62.6 °F59.0 °F88 %29.95 in6.2 miEast (80°)4.6 mph
3:00 AM60.8 °F57.2 °F88 %29.95 in6.2 miSouth (180°)2.3 mph
3:00 AM61.0 °F58.0 °F85 %29.89 inSouth (180°)2.3 mph
3:30 AM60.8 °F57.2 °F88 %29.95 in6.2 miENE (70°)5.8 mph
4:00 AM57.2 °F55.4 °F94 %29.95 in6.2 miSE (140°)4.6 mph
4:30 AM59.0 °F57.2 °F94 %29.95 in6.2 miESE (110°)4.6 mphPartly Cloudy
5:00 AM59.0 °F57.0 °F91 %29.90 inESE (110°)3.5 mph
5:00 AM59.0 °F57.2 °F94 %29.95 in6.2 miESE (110°)3.5 mphScattered Clouds
5:30 AM57.2 °F55.4 °F94 %29.98 in6.2 miESE (110°)5.8 mphPartly Cloudy
6:00 AM59.0 °F57.0 °F89 %29.92 inSE (130°)4.6 mphOvercast
6:00 AM59.0 °F57.2 °F94 %29.98 in6.2 miSE (130°)4.6 mphScattered Clouds
6:13 AM59.0 °F57.2 °F94 %29.98 in6.2 miESE (120°)4.6 mphScattered Clouds
6:30 AM60.8 °F57.2 °F88 %30.01 in6.2 miESE (110°)5.8 mphScattered Clouds
7:00 AM60.8 °F57.2 °F88 %30.01 in6.2 miEast (100°)4.6 mphScattered Clouds
7:30 AM62.6 °F57.2 °F82 %30.01 in6.2 miEast (90°)4.6 mphMostly Cloudy
8:00 AM64.0 °F55.0 °F65 %29.95 inEast (100°)5.8 mph
8:00 AM64.4 °F55.4 °F73 %30.01 in6.2 miEast (100°)5.8 mphMostly Cloudy
8:30 AM66.2 °F53.6 °F64 %30.04 in6.2 miEast (100°)10.4 mphMostly Cloudy
9:00 AM68.0 °F55.0 °F53 %29.96 in9.0 miESE (110°)11.5 mphPartly Cloudy
9:00 AM68.0 °F55.4 °F64 %30.04 in6.2 miESE (110°)11.5 mphMostly Cloudy
9:30 AM69.8 °F55.4 °F60 %30.04 in6.2 miESE (110°)8.1 mphMostly Cloudy
10:00 AM69.8 °F55.4 °F60 %30.04 in6.2 miSE (130°)8.1 mphMostly Cloudy
10:30 AM71.6 °F55.4 °F57 %30.04 in6.2 miENE (70°)6.9 mphMostly Cloudy
11:00 AM76.0 °F55.0 °F37 %29.96 inEast (90°)8.1 mph
11:00 AM77.0 °F55.4 °F47 %30.04 in6.2 miEast (90°)8.1 mphScattered Clouds
11:30 AM77.0 °F53.6 °F44 %30.01 in6.2 miEast (100°)8.1 mphScattered Clouds
12:00 PM77.0 °F54.0 °F34 %29.95 inENE (60°)8.1 mph
12:00 PM77.0 °F53.6 °F44 %30.01 in6.2 miENE (60°)8.1 mphPartly Cloudy
12:30 PM78.8 °F53.6 °F42 %30.01 in6.2 miEast (80°)11.5 mphPartly Cloudy
1:00 PM78.8 °F53.6 °F42 %29.98 in6.2 miEast (90°)12.7 mphPartly Cloudy
1:30 PM78.8 °F50.0 °F36 %29.98 in6.2 miNE (50°)16.1 mphPartly Cloudy
2:00 PM81.0 °F50.0 °F23 %29.91 inEast (90°)12.7 mph
2:00 PM80.6 °F50.0 °F34 %29.98 in6.2 miEast (90°)12.7 mphPartly Cloudy
2:30 PM82.4 °F50.0 °F32 %29.98 in6.2 miEast (80°)15.0 mphPartly Cloudy
3:00 PM81.0 °F47.0 °F21 %29.91 inNE (40°)11.5 mph
3:00 PM80.6 °F48.2 °F32 %29.98 inNE (40°)11.5 mphClear
3:30 PM80.6 °F48.2 °F32 %29.98 inENE (70°)15.0 mphClear
4:00 PM78.8 °F50.0 °F36 %29.98 inENE (70°)17.3 mphClear
4:30 PM78.8 °F50.0 °F36 %29.98 inEast (80°)18.4 mphClear
5:00 PM78.0 °F51.0 °F28 %29.91 inEast (90°)19.6 mph
5:00 PM77.0 °F51.8 °F41 %29.98 inEast (90°)19.6 mphClear
5:19 PM77.0 °F51.8 °F41 %29.98 inENE (60°)23.0 mphClear
5:23 PM77.0 °F51.8 °F41 %29.98 inEast (90°)18.4 mphClear
5:30 PM75.2 °F51.8 °F44 %29.98 inEast (80°)19.6 mphClear
6:00 PM75.2 °F51.8 °F44 %29.98 inEast (100°)20.7 mphClear
6:00 PM74.0 °F52.0 °F36 %29.93 inEast (100°)20.7 mph
6:30 PM71.6 °F51.8 °F50 %30.01 inEast (90°)17.3 mphClear
7:00 PM69.8 °F55.4 °F60 %30.04 inSE (130°)15.0 mphClear
7:30 PM68.0 °F53.6 °F60 %30.04 in6.2 miESE (120°)13.8 mphPartly Cloudy
8:00 PM65.0 °F54.0 °F58 %29.99 inESE (120°)17.3 mph
8:00 PM64.4 °F53.6 °F68 %30.06 in6.2 miESE (120°)17.3 mphScattered Clouds
8:30 PM64.4 °F53.6 °F68 %30.06 in6.2 miESE (120°)12.7 mphScattered Clouds
8:54 PM62.6 °F53.6 °F72 %30.09 in6.2 miSE (130°)10.4 mphMostly Cloudy
9:00 PM62.6 °F53.6 °F72 %30.09 in6.2 miESE (120°)12.7 mphMostly Cloudy
9:00 PM63.0 °F53.0 °F63 %30.03 inESE (120°)12.7 mph
9:30 PM62.6 °F53.6 °F72 %30.09 in6.2 miESE (120°)10.4 mphOvercast
10:00 PM64.4 °F53.6 °F68 %30.12 in6.2 miESE (120°)10.4 mphOvercast
10:20 PM64.4 °F53.6 °F68 %30.12 in6.2 miESE (120°)9.2 mphOvercast
10:30 PM62.6 °F53.6 °F72 %30.12 in6.2 miESE (110°)8.1 mphOvercast
11:00 PM63.0 °F53.0 °F63 %30.05 inSE (140°)8.1 mph
11:00 PM62.6 °F53.6 °F72 %30.12 in6.2 miSE (140°)8.1 mphOvercast
11:30 PM64.4 °F53.6 °F68 %30.09 in6.2 miSSE (160°)8.1 mphOvercast
Hourly data recorded from YSCB, located miles away from Gundaroo, New South Wales







STORIES FROM OUR PARTNERS